GW4237 Weather Reports


time (UTC)temp
C
wind
direction
speed
KPH
gust
KPH
rain 1hr
cm
rain 24hr
cm
rain mn
cm
humidity
%
barometer
mb
20260507083040 15 355 0.0 3.2 0.00 0.00 0.00 78 1018.2
20260507081541 15 32 0.0 4.8 0.00 0.00 0.00 78 1018.2
20260507080039 15 349 1.6 3.2 0.00 0.00 0.00 78 1018.3
20260507074542 16 344 1.6 3.2 0.00 0.00 0.00 77 1018.3
20260507073042 16 334 1.6 3.2 0.00 0.00 0.00 78 1018.2
20260507071536 16 301 0.0 6.4 0.00 0.00 0.00 79 1018.2
20260507070035 16 289 3.2 8.0 0.00 0.00 0.00 78 1018.3
20260507064530 16 323 3.2 8.0 0.00 0.00 0.00 77 1018.5
20260507063043 16 314 6.4 8.0 0.00 0.00 0.00 76 1018.6
20260507061533 16 273 3.2 8.0 0.00 0.00 0.00 76 1018.4
20260507060040 17 279 3.2 4.8 0.00 0.00 0.00 75 1018.5
20260507054528 17 249 3.2 9.7 0.00 0.00 0.00 73 1018.5
20260507053028 17 317 4.8 9.7 0.00 0.00 0.00 71 1018.4
20260507051528 17 254 6.4 9.7 0.00 0.00 0.00 70 1018.4
20260507050033 17 261 3.2 9.7 0.00 0.00 0.00 69 1018.3
20260507044526 17 271 4.8 9.7 0.00 0.00 0.00 69 1018.4
20260507043026 18 263 4.8 11.3 0.00 0.00 0.00 69 1018.3
20260507041525 18 261 1.6 11.3 0.00 0.00 0.00 70 1018.2
20260507040026 18 302 3.2 11.3 0.00 0.00 0.00 68 1018.0
20260507034532 18 278 3.2 9.7 0.00 0.00 0.00 67 1017.8
20260507033026 19 259 6.4 14.5 0.00 0.00 0.00 65 1017.7
20260507031522 19 324 6.4 12.9 0.00 0.00 0.00 63 1017.5
20260507030023 20 302 6.4 12.9 0.00 0.00 0.00 62 1017.4
20260507024524 20 345 4.8 12.9 0.00 0.00 0.00 63 1017.3
20260507023024 20 222 6.4 12.9 0.00 0.00 0.00 63 1017.0
20260507021519 20 187 1.6 14.5 0.00 0.00 0.00 61 1017.0
20260507020029 21 191 4.8 12.9 0.00 0.00 0.00 60 1016.7
20260507014518 21 229 8.0 14.5 0.00 0.00 0.00 59 1016.8
20260507013036 21 169 6.4 16.1 0.00 0.00 0.00 58 1016.6
20260507011517 21 223 11.3 17.7 0.00 0.00 0.00 57 1016.4
20260507010017 22 163 8.0 17.7 0.00 0.00 0.00 58 1016.4
20260507004515 22 200 6.4 14.5 0.00 0.00 0.00 56 1016.4
20260507003015 22 256 8.0 19.3 0.00 0.00 0.00 56 1016.4
20260507001515 22 234 11.3 19.3 0.00 0.00 0.00 55 1016.3
20260507000016 22 216 12.9 17.7 0.00 0.00 0.00 54 1016.3
20260506234520 22 240 9.7 14.5 0.00 0.00 0.00 55 1016.2
20260506233014 22 269 8.0 17.7 0.00 0.00 0.00 56 1016.4
20260506231511 22 255 8.0 20.9 0.00 0.00 0.00 55 1016.4
20260506230010 22 240 8.0 16.1 0.00 0.00 0.00 55 1016.4
20260506224509 22 173 12.9 19.3 0.00 0.00 0.00 52 1016.6
20260506223007 22 211 11.3 20.9 0.00 0.00 0.00 52 1016.7
20260506221505 22 228 9.7 17.7 0.00 0.00 0.00 52 1016.8
20260506220010 22 232 8.0 20.9 0.00 0.00 0.00 54 1017.1
20260506214502 23 190 6.4 12.9 0.00 0.00 0.00 52 1017.1
20260506213100 22 149 4.8 16.1 0.00 0.00 0.00 53 1017.2
20260506211609 22 198 9.7 19.3 0.00 0.00 0.00 53 1017.4
20260506210056 22 250 9.7 17.7 0.00 0.00 0.00 54 1017.6
20260506204554 22 248 9.7 22.5 0.00 0.00 0.00 56 1017.7
20260506203053 21 219 8.0 16.1 0.00 0.00 0.00 55 1017.9
20260506201552 22 186 6.4 16.1 0.00 0.00 0.00 54 1018.1
20260506200050 22 267 3.2 9.7 0.00 0.00 0.00 52 1018.3
20260506194550 21 321 1.6 14.5 0.00 0.00 0.00 51 1018.4
20260506193045 22 236 6.4 14.5 0.00 0.00 0.00 52 1018.5
20260506191542 21 300 3.2 8.0 0.00 0.00 0.00 52 1018.6
20260506190041 21 339 6.4 14.5 0.00 0.00 0.00 53 1018.8
20260506184539 21 314 3.2 11.3 0.00 0.00 0.00 54 1019.0
20260506183038 20 146 8.0 12.9 0.00 0.00 0.00 54 1019.2
20260506181535 20 319 1.6 12.9 0.00 0.00 0.00 56 1019.3
20260506180036 19 290 1.6 8.0 0.00 0.00 0.00 57 1019.4
20260506174529 18 11 3.2 9.7 0.00 0.00 0.00 59 1019.4
20260506173025 18 309 3.2 8.0 0.00 0.00 0.00 62 1019.5
20260506171525 18 276 1.6 8.0 0.00 0.00 0.00 62 1019.5
20260506170022 18 263 3.2 8.0 0.00 0.03 0.00 63 1019.4
20260506164518 17 328 6.4 9.7 0.00 0.03 0.00 62 1019.4
20260506163019 17 273 1.6 8.0 0.00 0.03 0.00 68 1019.3
20260506161515 17 304 4.8 9.7 0.00 0.03 0.00 68 1019.4
20260506160017 17 311 3.2 9.7 0.00 0.15 0.00 68 1019.4
20260506154513 17 144 1.6 8.0 0.00 0.15 0.00 68 1019.5
20260506153011 16 34 1.6 8.0 0.00 0.15 0.00 67 1019.6
20260506151509 16 13 1.6 4.8 0.00 0.15 0.00 70 1019.5
20260506150004 15 76 1.6 8.0 0.00 0.20 0.00 74 1019.4
20260506144501 14 90 6.4 9.7 0.00 0.20 0.00 75 1019.5
20260506143100 13 91 4.8 9.7 0.00 0.20 0.00 78 1019.4
20260506143001 13 96 4.8 8.0 0.00 0.20 0.00 78 1019.3
20260506141611 12 72 0.0 8.0 0.00 0.20 0.00 81 1019.4
20260506140058 12 119 0.0 3.2 0.00 0.20 0.00 82 1019.2
20260506134556 12 100 1.6 6.4 0.00 0.20 0.00 83 1019.3
20260506133105 12 50 1.6 6.4 0.00 0.20 0.00 83 1019.2
20260506131556 12 304 0.0 3.2 0.00 0.20 0.00 83 1019.0
20260506130054 12 69 1.6 4.8 0.00 0.23 0.00 82 1018.8
20260506124552 12 101 1.6 4.8 0.00 0.23 0.00 81 1018.7
20260506123051 12 121 1.6 8.0 0.00 0.23 0.00 81 1018.8
20260506121559 12 66 0.0 6.4 0.00 0.23 0.00 83 1018.5
20260506120115 12 91 1.6 6.4 0.00 0.28 0.00 83 1018.5
20260506114548 12 97 3.2 8.0 0.00 0.28 0.00 82 1018.4
20260506113045 12 94 4.8 9.7 0.00 0.28 0.00 82 1018.4
20260506111543 13 92 3.2 6.4 0.00 0.28 0.00 83 1018.4
20260506110042 13 93 0.0 3.2 0.00 0.28 0.00 83 1018.4
20260506104542 13 64 0.0 1.6 0.00 0.28 0.00 83 1018.5
20260506103040 13 69 0.0 3.2 0.00 0.28 0.00 82 1018.4
20260506101540 13 73 0.0 3.2 0.00 0.28 0.00 82 1018.4
20260506100039 13 101 0.0 3.2 0.00 0.28 0.00 82 1018.4
20260506094545 13 88 0.0 3.2 0.00 0.28 0.00 82 1018.5
20260506093045 13 70 0.0 3.2 0.00 0.28 0.00 82 1018.5
20260506091537 13 112 0.0 3.2 0.00 0.28 0.00 79 1018.6
20260506090034 13 111 1.6 6.4 0.00 0.28 0.00 81 1018.7
20260506084533 13 106 1.6 4.8 0.00 0.28 0.00 81 1018.7